Location: Newark
(51.3318°N, 0.0053°E)
Time: 16:25:53
(UTC+00:00)

Envisat - Visible Passes

Search period start: 21 January 2022 00:00
Search period end: 31 January 2022 00:00
Orbit: 764 x 766 km, 98.2° (Epoch: 20 January)

Date Brightness Start Highest point End Pass type
(mag) Time Alt. Az. Time Alt. Az. Time Alt. Az.
21 Jan 4.9 04:06:13 10° NE 04:10:33 27° E 04:14:52 10° SSE visible
21 Jan 3.1 05:44:54 10° N 05:49:49 50° WNW 05:54:42 10° SW visible
21 Jan 5.7 17:06:01 10° SW 17:10:01 23° W 17:14:01 10° NW visible
22 Jan 5.8 03:30:33 10° NE 03:33:13 14° E 03:35:52 10° ESE visible
22 Jan 2.9 05:07:54 10° NNE 05:13:01 86° ESE 05:18:07 10° SSW visible
22 Jan 4.3 06:47:58 10° NNW 06:51:25 19° NW 06:54:51 10° W visible
23 Jan 4.0 04:31:10 10° NNE 04:36:01 44° E 04:40:52 10° S visible
23 Jan 3.6 06:10:26 10° N 06:14:56 33° WNW 06:19:25 10° SW visible
23 Jan 6.0 17:32:54 10° WSW 17:35:38 14° W 17:38:22 10° NW visible
24 Jan 5.2 03:54:52 10° NE 03:58:51 23° E 04:02:48 10° SE visible
24 Jan 2.9 05:33:14 10° N 05:38:16 61° WNW 05:43:16 10° SSW visible
25 Jan 6.0 03:19:55 10° ENE 03:21:26 11° E 03:22:58 10° E visible
25 Jan 3.2 04:56:19 10° NNE 05:01:25 70° ESE 05:06:29 10° S visible
25 Jan 4.1 06:36:08 10° N 06:39:58 22° WNW 06:43:47 10° WSW visible
26 Jan 4.4 04:19:41 10° NNE 04:24:22 36° E 04:29:01 10° SSE visible
26 Jan 3.4 05:58:43 10° N 06:03:26 39° WNW 06:08:07 10° SW visible
26 Jan 5.8 17:20:29 10° SW 17:23:52 18° W 17:27:17 10° NW visible
27 Jan 5.5 03:43:36 10° NE 03:47:07 18° E 03:50:37 10° SE visible
27 Jan 2.8 05:21:36 10° NNE 05:26:42 75° WNW 05:31:46 10° SSW visible
27 Jan 4.5 07:02:06 10° NNW 07:04:55 15° NW 07:07:42 10° W visible
28 Jan 3.5 04:44:45 10° NNE 04:49:47 57° E 04:54:47 10° S visible
28 Jan 3.9 06:24:20 10° N 06:28:30 26° WNW 06:32:39 10° WSW visible
28 Jan 6.4 17:48:26 10° W 17:49:33 11° W 17:50:41 10° WNW visible
29 Jan 4.8 04:08:15 10° NNE 04:12:41 29° E 04:17:04 10° SSE visible
29 Jan 3.2 05:47:01 10° N 05:51:54 47° WNW 05:56:45 10° SW visible
30 Jan 5.7 03:32:28 10° NE 03:35:21 15° E 03:38:14 10° ESE visible
30 Jan 2.9 05:10:00 10° NNE 05:15:07 90° NNW 05:20:12 10° SSW visible
30 Jan 4.4 06:50:09 10° NNW 06:53:28 18° NW 06:56:47 10° W visible
